Temp
-14 -14 -14 -14 -14 -14 -14 -14 -14 -14 -14 -15 -15 -16 -15 -15 -16 -17 -17 -17 -17 -17 -17 -17 -17 -17 -17 -17 -17 -17 -17 -18 -18 -18 -18 -18 -18 -18 -18 -18 -18 -17 -17
-15 -15 -14 -14 -14 -15 -15 -15 -15 -15 -14 -15 -15 -15 -15 -16 -16 -17 -17 -17 -17 -18 -18 -18 -18 -18 -18 -19 -19 -19 -19 -19 -18 -18 -18 -18 -18 -18 -18 -18 -18 -18 -18
-15 -15 -15 -15 -15 -15 -15 -15 -15 -15 -15 -15 -15 -15 -16 -16 -16 -17 -17 -17 -18 -18 -18 -18 -18 -18 -19 -19 -19 -18 -18 -18 -18 -18 -18 -18 -18 -18 -19 -18 -18 -19 -19
-15 -15 -15 -15 -15 -15 -15 -15 -15 -15 -15 -15 -15 -15 -15 -16 -16 -16 -17 -18 -18 -18 -19 -19 -19 -19 -19 -18 -18 -18 -18 -18 -18 -18 -18 -18 -19 -19 -19 -20 -20 -20 -20
-15 -15 -15 -15 -15 -14 -15 -15 -15 -15 -15 -16 -16 -16 -16 -17 -17 -17 -18 -18 -19 -19 -19 -19 -18 -18 -18 -18 -18 -18 -18 -18 -18 -19 -19 -19 -20 -20 -20 -21 -21 -21 -20
-14 -14 -14 -14 -14 -14 -14 -14 -14 -15 -15 -15 -15 -16 -16 -17 -17 -18 -18 -19 -19 -19 -18 -18 -18 -18 -18 -18 -18 -18 -19 -19 -19 -19 -20 -20 -21 -21 -21 -22 -23 -23 -24
-14 -14 -14 -14 -14 -14 -14 -14 -14 -15 -15 -15 -16 -16 -17 -17 -18 -18 -18 -18 -18 -18 -18 -18 -18 -18 -18 -18 -19 -19 -19 -20 -20 -21 -21 -22 -22 -23 -25 -26 -28 -28 -28
-14 -14 -14 -14 -14 -14 -15 -15 -15 -15 -15 -16 -16 -17 -18 -18 -18 -18 -18 -19 -19 -18 -18 -18 -18 -19 -19 -19 -19 -20 -20 -21 -22 -22 -22 -23 -25 -27 -28 -29 -31 -30 -31
-14 -14 -14 -14 -15 -15 -15 -15 -15 -16 -16 -16 -17 -17 -17 -18 -18 -18 -18 -19 -19 -19 -19 -19 -19 -19 -19 -20 -20 -21 -22 -22 -23 -24 -26 -27 -29 -29 -30 -32 -32 -32 -31
-14 -14 -14 -15 -15 -15 -15 -15 -16 -16 -17 -17 -17 -17 -18 -18 -18 -19 -19 -19 -19 -19 -19 -19 -19 -20 -20 -21 -21 -22 -23 -23 -25 -27 -29 -30 -30 -30 -31 -32 -32 -32 -32
-14 -15 -15 -15 -15 -15 -15 -16 -16 -16 -17 -17 -17 -18 -18 -19 -19 -19 -19 -19 -19 -19 -19 -20 -20 -21 -21 -22 -23 -23 -24 -26 -28 -30 -30 -31 -31 -31 -32 -32 -32 -32 -32
-15 -15 -15 -15 -15 -15 -16 -16 -16 -17 -17 -18 -18 -19 -19 -19 -20 -20 -20 -20 -20 -20 -20 -21 -21 -22 -22 -23 -24 -25 -26 -28 -30 -31 -31 -31 -31 -32 -32 -33 -33 -33 -32
-15 -15 -15 -15 -15 -15 -16 -17 -17 -17 -18 -18 -19 -19 -19 -20 -20 -20 -20 -20 -20 -21 -21 -21 -22 -23 -23 -24 -26 -27 -29 -31 -31 -31 -31 -32 -32 -33 -33 -33 -33 -32 -32
-15 -15 -15 -15 -15 -16 -16 -17 -18 -18 -18 -19 -19 -19 -20 -20 -20 -20 -21 -21 -21 -21 -22 -22 -23 -24 -24 -27 -28 -29 -31 -32 -32 -32 -32 -32 -33 -33 -33 -33 -33 -32 -33
-15 -15 -16 -16 -16 -17 -17 -18 -18 -19 -19 -19 -20 -20 -20 -20 -21 -21 -21 -21 -22 -22 -23 -24 -24 -25 -27 -28 -29 -31 -32 -32 -32 -32 -32 -33 -33 -33 -33 -33 -33 -33 -33
-15 -16 -16 -16 -17 -17 -18 -18 -19 -19 -19 -20 -20 -20 -21 -21 -21 -21 -22 -22 -23 -23 -24 -24 -25 -27 -28 -29 -31 -32 -32 -32 -32 -33 -33 -33 -33 -33 -33 -33 -33 -33 -33
-16 -16 -17 -17 -17 -18 -18 -18 -19 -19 -20 -20 -20 -21 -21 -21 -22 -22 -23 -23 -23 -24 -24 -25 -27 -28 -29 -31 -32 -33 -32 -33 -33 -33 -33 -33 -33 -33 -33 -33 -33 -34 -34
-16 -17 -17 -17 -18 -18 -19 -19 -20 -20 -20 -21 -21 -21 -21 -22 -23 -23 -23 -23 -24 -25 -25 -27 -28 -29 -31 -32 -33 -33 -33 -33 -33 -33 -33 -33 -33 -33 -33 -33 -33 -34 -34
-17 -17 -18 -18 -18 -19 -19 -20 -20 -20 -21 -21 -21 -22 -22 -23 -24 -24 -24 -24 -25 -26 -27 -28 -29 -31 -32 -33 -33 -33 -33 -33 -33 -34 -34 -33 -33 -33 -33 -33 -34 -34 -34
-17 -18 -18 -19 -19 -19 -20 -20 -20 -21 -21 -21 -22 -23 -23 -24 -24 -24 -24 -25 -26 -27 -28 -29 -30 -32 -32 -33 -33 -33 -33 -33 -34 -34 -34 -33 -33 -33 -33 -33 -34 -34 -34
-18 -19 -19 -19 -19 -20 -20 -20 -21 -21 -22 -22 -23 -23 -24 -24 -24 -25 -25 -26 -27 -28 -29 -30 -31 -32 -33 -33 -33 -33 -33 -33 -34 -34 -34 -34 -33 -33 -34 -33 -34 -34 -34
-19 -19 -19 -19 -20 -20 -20 -21 -21 -22 -22 -23 -24 -24 -24 -24 -25 -26 -26 -27 -28 -29 -30 -31 -32 -32 -33 -33 -33 -33 -34 -34 -34 -34 -34 -34 -34 -33 -34 -34 -34 -34 -34
-19 -19 -20 -20 -20 -20 -21 -21 -22 -22 -23 -24 -24 -25 -25 -25 -26 -26 -27 -28 -29 -30 -31 -32 -32 -33 -33 -34 -34 -34 -34 -34 -34 -34 -34 -34 -34 -34 -34 -34 -34 -34 -34
-20 -20 -20 -20 -20 -21 -21 -22 -22 -23 -24 -24 -25 -25 -25 -26 -27 -27 -28 -30 -30 -31 -32 -32 -33 -33 -34 -34 -34 -34 -34 -34 -35 -35 -35 -34 -34 -34 -34 -34 -34 -34 -34
-20 -20 -21 -21 -21 -21 -22 -23 -23 -24 -25 -25 -25 -26 -26 -27 -28 -29 -30 -30 -31 -32 -32 -33 -33 -33 -34 -34 -34 -34 -34 -35 -35 -35 -35 -35 -35 -35 -34 -34 -34 -34 -34
-20 -21 -22 -22 -22 -23 -24 -24 -24 -25 -25 -26 -26 -27 -27 -28 -29 -30 -30 -31 -32 -33 -33 -33 -33 -34 -34 -34 -34 -34 -35 -35 -35 -35 -35 -35 -35 -35 -35 -35 -35 -34 -34
Height
5809 5809 5808 5809 5808 5807 5805 5803 5801 5798 5795 5792 5790 5784 5782 5777 5772 5768 5764 5760 5754 5751 5747 5742 5737 5732 5728 5724 5720 5716 5711 5707 5703 5700 5696 5692 5689 5687 5683 5680 5675 5672 5669
5805 5804 5804 5805 5803 5801 5799 5797 5795 5792 5789 5785 5781 5777 5773 5770 5764 5759 5753 5747 5740 5736 5732 5728 5724 5719 5715 5711 5706 5703 5699 5693 5688 5684 5680 5674 5668 5660 5658 5655 5653 5648 5645
5801 5800 5800 5799 5797 5795 5792 5790 5787 5784 5781 5777 5773 5768 5763 5758 5753 5747 5741 5737 5733 5730 5726 5721 5716 5711 5706 5701 5696 5691 5685 5679 5671 5664 5657 5651 5644 5636 5628 5622 5617 5616 5612
5796 5795 5794 5792 5791 5789 5787 5784 5781 5778 5775 5770 5766 5761 5756 5751 5745 5739 5734 5730 5726 5721 5716 5710 5705 5700 5695 5689 5682 5675 5666 5659 5651 5642 5633 5625 5616 5609 5605 5594 5587 5582 5577
5792 5791 5789 5787 5785 5782 5780 5777 5774 5770 5765 5761 5757 5753 5747 5741 5735 5730 5725 5720 5715 5710 5705 5699 5694 5687 5680 5672 5664 5655 5646 5636 5627 5617 5607 5598 5588 5576 5567 5560 5554 5544 5537
5787 5785 5784 5782 5780 5777 5774 5770 5765 5761 5757 5753 5748 5743 5737 5731 5726 5721 5716 5710 5705 5699 5693 5686 5678 5670 5662 5653 5643 5633 5622 5612 5602 5592 5580 5570 5560 5549 5535 5524 5513 5507 5507
5782 5782 5780 5777 5774 5771 5767 5763 5759 5755 5750 5745 5740 5735 5729 5724 5717 5712 5706 5700 5693 5686 5678 5670 5662 5652 5642 5633 5624 5613 5602 5591 5579 5567 5555 5543 5530 5517 5505 5494 5484 5478 5481
5779 5777 5774 5771 5768 5765 5762 5758 5753 5748 5742 5737 5732 5726 5720 5714 5708 5702 5695 5688 5680 5672 5664 5656 5647 5638 5628 5618 5606 5593 5580 5567 5553 5540 5527 5515 5503 5492 5483 5474 5465 5462 5463
5774 5772 5769 5766 5763 5759 5755 5750 5745 5740 5735 5729 5723 5717 5711 5705 5698 5691 5684 5676 5669 5660 5651 5642 5633 5622 5610 5597 5585 5571 5558 5544 5530 5516 5503 5492 5483 5475 5467 5460 5454 5448 5449
5769 5767 5763 5760 5756 5752 5747 5743 5738 5732 5726 5719 5713 5706 5700 5693 5685 5678 5670 5663 5654 5645 5635 5625 5614 5602 5589 5577 5564 5550 5537 5522 5507 5495 5485 5477 5469 5462 5455 5450 5444 5439 5435
5764 5760 5757 5753 5749 5744 5739 5734 5728 5722 5715 5708 5701 5694 5687 5680 5673 5665 5657 5648 5639 5629 5619 5607 5596 5584 5570 5557 5543 5528 5514 5502 5489 5480 5473 5466 5458 5451 5444 5439 5433 5428 5422
5757 5754 5750 5745 5741 5735 5730 5723 5717 5710 5704 5697 5690 5683 5676 5668 5660 5651 5642 5633 5624 5613 5602 5590 5578 5564 5550 5536 5522 5508 5495 5484 5475 5468 5462 5454 5447 5440 5434 5428 5421 5415 5409
5749 5745 5740 5736 5731 5725 5718 5712 5705 5699 5692 5685 5678 5671 5663 5655 5646 5637 5628 5619 5608 5597 5584 5571 5557 5543 5530 5515 5501 5487 5476 5468 5462 5457 5450 5443 5436 5430 5423 5416 5409 5402 5396
5740 5735 5730 5725 5719 5714 5707 5701 5694 5687 5680 5673 5666 5658 5650 5642 5633 5624 5614 5603 5591 5579 5565 5551 5538 5523 5508 5493 5480 5469 5461 5456 5451 5446 5439 5433 5426 5418 5412 5404 5396 5389 5383
5730 5725 5719 5714 5709 5702 5695 5689 5682 5676 5669 5661 5653 5645 5637 5628 5619 5608 5597 5585 5573 5560 5547 5533 5519 5504 5489 5476 5465 5457 5451 5446 5441 5436 5429 5422 5415 5407 5399 5392 5385 5378 5371
5720 5714 5708 5702 5696 5690 5684 5678 5671 5664 5656 5648 5640 5632 5623 5613 5603 5592 5581 5568 5556 5543 5530 5515 5499 5486 5474 5462 5453 5446 5442 5437 5432 5426 5420 5412 5405 5397 5389 5381 5374 5368 5361
5709 5703 5697 5691 5685 5679 5673 5666 5658 5650 5643 5635 5626 5618 5608 5598 5587 5576 5564 5552 5540 5526 5512 5498 5483 5470 5459 5450 5444 5438 5434 5428 5423 5418 5411 5403 5394 5387 5378 5371 5365 5358 5353
5698 5692 5686 5680 5674 5667 5660 5652 5645 5638 5629 5621 5613 5603 5593 5582 5571 5560 5548 5535 5522 5509 5495 5480 5468 5456 5446 5439 5435 5430 5426 5421 5415 5409 5401 5394 5385 5377 5369 5363 5357 5350 5346
5686 5680 5674 5668 5661 5654 5647 5640 5632 5624 5616 5607 5598 5588 5578 5567 5555 5544 5531 5518 5506 5491 5477 5466 5454 5443 5436 5431 5427 5422 5418 5413 5407 5400 5393 5385 5376 5368 5361 5355 5349 5344 5339
5673 5667 5661 5655 5648 5641 5634 5627 5618 5609 5601 5592 5583 5572 5562 5552 5540 5528 5515 5503 5490 5475 5463 5452 5441 5433 5427 5423 5419 5415 5411 5406 5400 5393 5386 5378 5370 5361 5354 5348 5342 5338 5334
5660 5655 5649 5642 5635 5628 5620 5612 5604 5596 5587 5577 5568 5557 5546 5535 5523 5511 5499 5486 5474 5462 5451 5440 5431 5425 5419 5415 5412 5408 5403 5399 5393 5387 5380 5372 5364 5355 5348 5342 5336 5333 5329
5648 5642 5635 5629 5622 5614 5606 5599 5591 5582 5573 5562 5552 5541 5530 5518 5507 5495 5482 5469 5458 5447 5438 5429 5421 5416 5411 5407 5404 5400 5396 5391 5386 5380 5374 5366 5358 5350 5343 5337 5331 5328 5324
5635 5628 5622 5615 5608 5601 5594 5587 5577 5567 5557 5546 5535 5525 5514 5502 5490 5479 5466 5454 5444 5434 5426 5418 5412 5407 5403 5400 5397 5393 5389 5385 5380 5374 5368 5360 5353 5345 5338 5332 5327 5324 5320
5621 5615 5608 5601 5595 5588 5581 5572 5562 5552 5541 5531 5520 5508 5497 5486 5474 5462 5451 5441 5432 5423 5415 5409 5403 5399 5395 5392 5389 5386 5382 5378 5373 5368 5362 5356 5349 5341 5335 5328 5323 5320 5316
5608 5602 5596 5589 5582 5573 5564 5555 5546 5536 5525 5514 5503 5493 5482 5470 5459 5448 5438 5429 5420 5413 5406 5400 5395 5390 5387 5385 5382 5379 5375 5372 5368 5362 5357 5351 5344 5337 5330 5324 5320 5316 5313
5596 5588 5581 5574 5566 5557 5548 5539 5528 5518 5508 5498 5487 5477 5466 5454 5444 5434 5426 5418 5410 5404 5398 5392 5387 5383 5380 5377 5375 5372 5369 5365 5362 5357 5353 5347 5341 5334 5327 5321 5316 5312 5309
Wind_Speed
14 16 16 18 17 20 23 24 27 30 32 37 46 41 43 46 47 46 46 47 48 48 47 49 46 41 43 44 46 51 53 55 57 59 60 62 64 65 67 68 71 74 76
13 15 17 18 19 22 25 28 30 33 37 41 43 45 48 48 49 52 51 53 52 51 54 53 48 50 52 54 55 56 57 59 64 66 68 71 75 79 80 80 80 82 83
17 19 21 21 21 24 27 31 34 37 39 42 45 49 51 52 53 54 57 51 50 53 54 51 52 54 56 57 57 60 65 68 72 75 78 81 83 86 88 90 92 91 93
19 19 19 21 25 28 29 31 35 39 41 44 48 51 52 57 58 59 50 48 52 51 51 54 56 57 59 60 64 68 73 77 79 83 87 89 91 92 93 94 96 98 100
16 18 20 22 24 24 26 26 28 32 36 41 46 48 47 47 48 49 49 52 52 54 57 59 62 63 65 68 73 78 81 83 87 90 93 96 97 100 102 104 104 105 105
13 13 13 14 16 19 22 26 29 33 36 39 43 45 47 47 49 49 51 53 57 59 62 64 66 68 72 77 80 82 87 91 94 97 99 100 101 103 105 102 95 92 85
8 11 13 15 18 20 24 26 29 31 34 38 42 44 46 47 50 52 56 57 60 63 65 67 70 75 78 80 84 89 92 95 97 98 99 102 102 96 87 80 73 69 64
11 14 17 19 22 25 28 30 33 34 35 38 41 44 47 51 52 53 56 59 62 65 68 71 73 75 80 85 89 91 94 96 97 100 102 96 84 73 65 61 57 57 53
14 17 20 23 25 29 32 34 37 38 39 40 43 46 48 51 54 55 57 60 63 66 69 71 75 80 86 89 91 94 95 96 99 93 82 70 62 57 52 48 49 46 37
18 20 23 25 28 31 34 36 38 40 41 43 46 49 51 54 56 58 60 63 67 68 71 76 82 86 89 90 92 94 96 96 87 75 60 52 49 46 43 43 43 43 45
23 26 27 29 32 35 38 40 41 43 45 47 51 53 54 56 59 60 63 66 68 72 77 82 86 88 89 90 92 96 91 81 69 52 46 46 45 45 44 44 46 47 47
30 32 34 36 38 40 43 45 47 48 49 51 52 54 56 59 60 63 65 68 72 77 82 84 86 87 88 91 93 85 78 65 48 44 43 42 42 42 44 47 46 48 48
35 37 40 42 44 45 47 49 50 51 51 53 55 56 58 60 62 65 68 72 77 80 84 85 86 86 90 91 82 75 62 46 41 40 41 43 44 43 45 47 48 48 48
40 41 43 45 48 48 50 51 52 53 55 56 57 58 59 62 64 68 72 77 80 83 84 85 85 89 88 79 74 61 46 39 38 40 42 45 45 45 47 47 48 48 44
44 45 46 49 50 51 53 53 54 55 57 58 58 59 61 64 68 72 77 80 81 82 83 84 87 86 78 73 60 48 38 37 38 40 44 47 46 48 48 47 47 43 43
46 48 50 51 53 54 53 54 56 57 58 59 60 62 64 68 72 76 79 80 80 81 82 86 85 77 73 62 50 38 35 37 37 40 44 46 47 46 45 45 42 41 38
49 50 51 53 54 53 54 57 58 58 59 60 61 63 67 71 75 78 78 79 80 81 84 84 76 71 64 50 38 34 35 35 36 41 44 44 45 44 44 41 38 37 31
51 52 54 54 53 54 56 57 58 59 60 61 63 67 71 75 77 78 81 81 80 83 82 74 69 65 51 40 32 32 32 33 38 41 42 43 43 42 40 36 36 29 29
53 54 53 53 54 55 56 57 60 60 60 63 67 70 73 75 76 81 83 81 82 82 75 67 65 53 42 32 30 31 30 33 38 39 40 41 41 40 36 34 31 25 28
53 52 52 53 55 56 57 59 59 60 65 67 70 71 74 76 78 83 82 80 80 75 66 63 56 43 35 28 29 30 30 34 36 37 37 38 37 35 33 33 26 23 26
51 51 53 54 55 57 59 58 60 65 68 71 71 73 76 77 82 82 80 80 75 66 61 57 46 37 31 27 29 29 30 34 34 34 34 36 35 33 31 31 24 22 24
51 53 53 55 57 58 58 59 65 70 71 72 73 75 78 80 82 80 79 74 67 61 56 49 39 33 28 27 28 28 30 33 32 32 33 34 33 32 29 27 22 21 23
52 53 56 58 57 58 59 63 69 71 72 74 75 77 78 82 81 79 73 67 60 56 50 42 35 32 27 27 27 27 29 31 31 31 31 33 34 31 30 27 22 19 22
54 56 57 57 59 61 65 69 71 73 75 76 77 79 80 80 77 73 66 59 55 50 44 38 33 30 27 26 25 26 28 29 30 29 30 32 33 32 29 26 22 18 19
55 56 55 57 59 65 68 69 73 75 75 77 79 80 78 76 71 65 60 54 50 44 40 35 32 29 27 26 25 25 27 28 28 28 29 30 32 33 30 27 23 18 17
56 57 58 61 66 67 67 71 74 76 78 79 80 77 74 69 64 58 54 50 44 39 36 33 30 28 26 26 25 25 26 26 27 27 28 28 30 32 31 28 24 20 17
Wind_Direction
258 262 267 270 281 286 283 283 283 281 279 283 287 297 296 307 310 310 308 306 307 302 300 302 303 300 298 297 299 302 302 303 302 299 297 294 291 289 287 287 284 283 283
276 279 283 286 289 290 285 284 285 282 284 286 290 290 294 303 305 303 307 310 311 310 311 309 306 306 305 305 303 301 299 298 298 296 296 295 295 294 292 288 287 286 285
277 281 288 288 292 292 288 289 291 290 289 289 290 294 301 306 306 306 309 309 306 304 303 303 302 301 299 298 296 295 296 297 298 297 298 297 297 296 296 293 291 289 287
274 279 286 287 290 294 296 293 294 295 296 295 294 295 298 300 299 300 303 301 300 300 299 300 299 297 296 294 295 296 299 299 299 299 299 298 297 296 294 294 294 292 291
279 288 290 295 300 309 310 308 306 301 303 299 296 298 300 303 303 307 303 303 304 302 299 299 299 298 297 297 299 300 300 301 301 301 301 300 300 300 298 297 297 295 293
288 300 312 316 318 318 318 319 318 315 312 309 307 304 304 305 305 304 303 301 299 300 301 301 301 301 301 302 303 304 305 304 303 303 301 301 301 301 301 299 296 293 289
312 310 313 315 321 325 324 323 321 321 320 315 310 306 304 303 302 301 299 299 301 301 301 302 303 305 306 306 306 305 304 304 304 304 304 305 304 303 299 295 293 290 290
309 314 316 317 318 319 318 316 316 317 317 312 308 305 301 299 298 298 300 302 303 304 305 305 306 306 305 305 305 305 306 307 307 307 307 305 302 298 295 294 292 291 294
312 314 313 313 313 313 312 312 312 311 309 307 304 301 300 300 300 301 302 303 303 303 305 306 306 305 306 307 308 308 308 309 308 307 306 303 301 300 298 295 293 299 298
302 308 308 308 309 311 311 310 309 308 307 305 305 303 302 302 303 304 304 305 305 306 307 307 307 309 309 309 310 309 310 309 308 306 303 302 302 302 301 300 299 298 297
296 299 301 303 305 308 308 308 309 311 310 306 305 306 306 306 305 304 305 306 308 307 308 308 309 309 310 310 311 311 310 309 306 302 302 301 301 300 300 300 299 298 298
294 296 298 300 301 305 308 310 311 310 309 306 305 305 304 304 305 306 307 308 308 308 309 308 309 311 312 313 312 310 310 307 301 298 303 305 306 304 302 303 302 302 301
299 299 300 301 302 302 305 307 308 308 307 306 307 306 305 305 306 307 308 308 309 309 309 310 312 313 314 313 312 312 308 301 300 301 306 310 310 306 306 306 304 303 304
301 302 302 301 301 300 302 305 306 306 308 308 308 308 306 307 307 308 309 309 310 311 312 313 314 315 315 314 315 310 305 302 301 303 308 310 311 309 308 306 306 306 305
301 302 301 301 301 300 303 305 306 306 307 309 308 307 307 307 308 309 309 311 312 314 315 315 316 316 315 316 312 306 300 302 302 305 308 312 311 310 310 310 309 308 308
300 300 301 302 301 301 303 304 305 307 309 308 308 308 307 307 308 309 311 314 315 315 316 318 317 316 316 315 309 301 301 302 303 308 311 310 311 311 310 310 309 309 308
298 299 300 300 301 301 303 305 307 309 308 307 308 307 307 308 309 312 315 316 316 318 319 318 316 317 316 310 304 298 302 303 307 311 311 312 312 313 312 311 311 311 307
297 299 300 301 302 303 305 307 307 307 306 307 307 308 308 309 312 315 318 317 318 319 319 317 317 317 313 307 300 301 303 306 311 313 313 314 315 315 313 313 313 306 308
299 300 301 302 303 305 306 305 305 305 307 308 308 309 309 311 313 315 318 318 319 319 318 318 317 314 309 301 299 302 304 310 314 315 316 318 319 319 315 314 313 305 310
299 300 302 304 305 305 304 304 306 309 308 308 309 309 311 312 314 317 317 318 319 318 318 318 317 312 305 297 299 300 304 313 315 316 320 322 322 320 317 318 313 306 312
300 302 303 304 304 304 305 306 309 306 307 308 310 310 312 314 315 316 318 319 319 317 318 317 314 308 301 294 298 298 306 314 315 318 322 325 326 326 323 322 313 309 315
300 301 302 303 304 305 307 307 302 304 308 310 311 313 314 315 317 318 319 319 317 317 318 316 312 308 300 295 297 299 307 314 315 319 323 330 332 330 328 327 314 311 319
301 302 304 305 305 307 307 299 301 308 310 311 312 313 314 316 318 318 318 317 317 318 318 315 310 307 297 295 295 299 307 313 315 319 324 332 337 336 334 332 319 311 320
303 304 305 306 307 303 299 303 307 308 308 309 311 313 314 317 317 318 317 316 316 318 317 313 309 305 295 292 292 298 307 311 314 319 325 332 338 341 337 332 325 308 317
303 303 304 303 300 298 302 304 303 306 307 310 312 314 315 316 317 317 316 316 317 316 315 311 309 303 295 291 291 298 304 309 313 317 324 330 337 342 341 336 332 314 307
302 305 304 300 299 302 303 302 304 307 309 311 313 314 314 316 317 316 316 316 315 315 313 310 308 302 292 288 289 297 301 306 312 317 322 328 335 340 342 340 332 326 306